Regional Weather Roundup
Issued by NWS

Home | Current Version | Previous Version | Text Only | Print | Product List | Glossary On
Versions: 1 2 3 4 5 6 7 8 9 10 11 12 13 14 15 16 17 18 19 20 21 22 23 24 25 26 27 28 29 30 31 32 33 34 35 36 37 38 39 40 41 42 43 44 45 46 47 48 49 50
000
ASUS44 KMEG 310200
RWRTN
TENNESSEE HOURLY STATE WEATHER ROUNDUP
NATIONAL WEATHER SERVICE MEMPHIS TN
900 PM CDT MON MAY 30 2016

TNZ002-004-019-021-049-052-054-088>092-310300-
WEST TENNESSEE

CITY           SKY/WX    TMP DP  RH WIND       PRES   REMARKS
MEMPHIS INTL   MOCLDY    83  63  50 E6        29.96S
NWS MEMPHIS      N/A     76 N/A N/A MISG        N/A
JACKSON        CLEAR     72  64  76 CALM      29.97S
DYERSBURG      CLEAR     77  66  69 CALM      29.97R
UNION CITY     CLEAR     75  66  73 CALM      29.96S
PARIS          CLEAR     68  63  83 CALM      29.99S
LEXINGTON      CLEAR     72  68  88 CALM      29.98R
$$

TNZ008-025-027-028-033-062-065-066-310300-
NORTH MIDDLE TENNESSEE

CITY           SKY/WX    TMP DP  RH WIND       PRES   REMARKS
NASHVILLE      PTCLDY    79  57  46 CALM      29.98R
CLARKSVILLE    CLEAR     75  59  57 CALM      29.98S
COOKEVILLE     CLEAR     66  63  88 CALM      29.99R
CROSSVILLE     CLEAR     74  57  55 N5        30.04R
$$

TNZ061-075-076-078-094-096-097-310300-
SOUTH MIDDLE TENNESSEE

CITY           SKY/WX    TMP DP  RH WIND       PRES   REMARKS
TULLAHOMA      CLEAR     73  59  60 N3        30.01R
WINCHESTER     CLEAR     72  61  68 CALM      29.99R
SHELBYVILLE    CLEAR     73  61  64 CALM      29.99S
$$

TNZ017-018-042-046-047-310300-
NORTHEAST TENNESSEE

CITY           SKY/WX    TMP DP  RH WIND       PRES   REMARKS
TRI CITIES     CLEAR     69  61  75 N5        30.01R
$$

TNZ012-013-036-069-073-074-310300-
CENTRAL EAST TENNESSEE

CITY           SKY/WX    TMP DP  RH WIND       PRES   REMARKS
KNOXVILLE      CLEAR     72  66  81 CALM      29.98R
OAK RIDGE      CLEAR     76  62  62 CALM      30.00R
GATLINBURG     CLEAR     70  61  73 CALM      29.99R
$$

TNZ083-085-099-310300-
SOUTHEAST TENNESSEE

CITY           SKY/WX    TMP DP  RH WIND       PRES   REMARKS
CHATTANOOGA    PTCLDY    78  61  55 CALM      29.96R
$$

SKY/WX REPORTED AS FAIR MEANS FEW OR NO CLOUDS BELOW
12 THOUSAND FEET.





USA.gov is the U.S. government's official web portal to all federal, state and local government web resources and services.